Wind_Speed
29 29 28 26 25 25 27 28 29 31 32 33 34 35 35 34 35 33 31 32 31 30 30 31 30 29 28 26 26 26 27 28 28 28 29 30 32 34 34 35 36 36 34 34 35 37 38 38 39 40 42 43 44 45 45 44 44 44 45 47 48 49 50 50 51 52 51 49 46 44 41 38 36 33 30 29 29 29 29 31 32 32 32 31 32 33 32
31 31 30 29 29 30 30 31 33 34 35 37 39 40 38 37 37 35 34 34 32 30 30 30 29 29 28 27 27 27 27 28 28 29 30 31 33 34 35 36 36 34 33 34 36 38 38 39 40 41 43 45 45 45 45 44 44 45 46 48 49 50 50 51 51 52 51 48 45 43 40 38 36 33 31 31 30 30 30 31 33 33 33 32 31 31 32
34 34 33 34 34 35 35 36 36 36 37 39 40 39 38 38 38 36 36 35 33 30 30 30 29 28 28 28 28 28 28 28 29 30 31 32 33 34 35 36 34 33 34 36 37 38 38 40 41 42 45 46 45 45 44 44 44 45 47 48 50 50 50 50 50 51 50 47 44 42 40 38 37 35 33 32 31 31 31 32 32 33 33 32 31 31 31
36 36 37 38 38 39 41 40 38 38 39 40 39 38 38 38 38 37 36 35 33 32 32 31 30 29 28 29 29 30 30 30 30 31 32 33 34 34 35 35 34 34 35 37 38 38 39 40 42 44 46 46 45 45 44 44 45 46 48 49 50 50 50 49 49 50 49 47 44 42 39 38 38 37 35 33 31 32 32 32 31 32 33 32 31 30 30
38 38 39 40 41 44 45 41 39 40 40 39 37 37 37 37 37 36 35 34 34 34 34 33 31 30 30 30 31 31 31 31 31 33 33 33 33 34 34 34 34 36 37 38 38 38 39 41 43 45 46 46 45 45 45 45 46 47 48 49 50 50 49 49 49 49 48 47 45 43 40 37 37 37 36 33 31 31 32 31 31 31 32 32 30 29 29
39 40 41 43 47 48 44 41 39 39 38 37 37 37 36 36 36 36 35 34 34 35 35 34 33 32 31 31 31 31 31 31 32 33 33 32 33 33 33 34 35 36 37 38 39 39 40 41 43 45 46 46 46 45 45 46 47 48 49 49 49 49 49 48 48 48 48 47 46 43 40 37 36 36 36 34 32 31 31 31 29 30 31 31 30 28 27
44 44 46 49 50 47 42 39 38 36 35 36 38 38 36 34 34 35 34 34 35 35 34 34 33 32 31 31 31 31 31 31 31 31 31 32 32 33 33 34 35 36 37 38 39 41 42 42 44 45 46 47 46 46 46 47 47 48 49 49 49 49 49 49 48 48 48 47 46 43 39 36 36 36 36 34 32 31 30 30 28 29 30 30 29 28 27
49 48 49 49 48 44 41 37 35 34 35 38 40 39 36 33 33 34 33 34 34 33 32 32 31 31 31 31 31 30 30 30 30 30 31 32 32 32 33 34 35 36 38 40 41 43 43 44 44 45 46 46 46 46 47 47 48 48 48 49 49 49 49 49 48 48 48 47 45 42 38 36 36 37 36 34 32 31 30 29 28 28 30 30 29 28 27
48 47 47 46 45 44 40 34 32 34 37 39 41 39 35 32 32 32 31 31 31 31 30 29 29 29 29 29 30 30 29 29 29 30 31 31 31 32 34 35 36 38 40 42 43 44 45 45 46 46 46 46 46 46 47 48 48 48 48 49 49 49 49 48 47 47 46 45 43 40 37 36 36 37 36 34 32 31 30 28 27 27 29 29 28 27 26
45 45 45 45 45 44 38 31 30 34 37 38 39 38 34 30 30 30 29 29 28 28 27 27 28 28 28 29 29 29 28 28 29 30 30 31 32 33 35 36 38 40 42 44 45 46 46 46 46 46 46 46 46 47 48 49 49 49 48 49 49 48 48 47 46 45 44 43 41 39 37 35 35 35 34 32 31 30 28 26 25 26 28 28 27 26 26
44 44 44 44 44 42 37 30 29 33 36 36 37 36 31 27 27 29 29 28 27 27 26 26 26 27 27 28 27 27 26 27 29 29 30 32 33 34 36 38 40 42 44 45 46 47 47 47 46 46 46 46 47 48 49 49 50 49 48 48 47 47 46 45 44 43 42 40 39 38 37 35 34 33 32 30 29 28 26 24 23 25 26 26 25 24 25
42 43 43 44 43 41 36 30 29 31 34 35 36 33 28 26 28 28 27 27 27 27 26 26 25 26 26 26 25 26 27 28 29 30 31 32 34 36 38 40 42 44 45 46 46 47 47 47 47 47 47 47 48 49 50 50 50 49 47 46 45 44 43 43 42 41 40 38 38 38 36 34 32 31 30 28 26 25 24 23 22 23 25 25 23 23 24
41 42 43 43 42 38 34 30 29 31 33 36 36 31 27 28 29 28 27 27 26 27 27 27 26 26 25 25 26 28 30 30 30 30 31 33 35 37 40 42 44 45 45 45 46 46 47 48 48 48 49 49 50 51 51 51 50 48 46 44 43 42 41 41 40 39 38 37 37 37 34 32 31 30 28 26 24 23 23 23 22 22 24 24 22 22 23
41 42 42 43 41 37 33 31 32 33 35 37 35 32 30 32 31 29 27 27 26 27 27 26 26 27 27 28 30 32 32 31 31 31 33 35 37 39 42 44 45 46 46 46 46 47 48 48 49 50 50 50 51 51 51 51 50 48 46 43 41 40 40 39 38 37 37 37 37 36 34 31 30 28 26 24 23 22 22 22 22 22 23 23 22 21 22
42 43 43 42 41 38 35 34 35 36 37 37 36 36 36 35 33 31 30 28 27 27 27 26 27 27 29 31 32 33 32 32 32 34 36 38 40 41 43 45 46 46 47 47 48 48 48 49 50 51 51 51 51 51 51 51 49 47 45 43 40 38 38 38 38 38 38 37 36 36 33 30 28 27 26 24 23 22 21 21 21 21 22 23 22 21 21
44 45 44 43 41 39 38 37 37 38 39 40 39 39 39 37 35 33 32 31 30 28 28 28 28 29 30 31 32 32 33 33 34 36 37 39 41 43 45 46 47 48 48 49 49 48 48 49 50 50 51 52 52 52 51 50 48 46 45 43 39 38 38 39 39 39 38 37 36 35 33 30 27 26 25 25 23 21 20 20 20 20 21 22 22 21 21
47 47 46 44 42 41 41 40 40 40 41 41 40 40 40 39 37 35 34 34 32 30 29 28 29 30 31 32 33 33 33 34 36 37 39 41 43 45 46 47 47 48 48 48 48 48 48 48 49 50 51 52 52 51 50 48 47 47 45 43 40 39 39 39 40 39 37 36 36 35 33 29 27 25 25 24 23 20 20 20 20 19 19 20 21 21 21
49 48 47 46 45 44 43 42 42 42 42 42 42 41 40 40 39 37 37 36 34 32 30 30 31 32 33 34 34 34 34 35 37 39 41 43 45 46 46 46 46 46 46 46 46 47 47 48 49 50 51 51 50 49 48 48 48 47 44 42 40 40 40 40 39 37 37 37 37 35 32 29 26 25 25 24 22 21 20 20 20 19 19 19 20 20 20
49 49 48 47 46 45 44 43 43 43 42 42 42 42 41 41 40 40 39 38 36 35 34 34 34 35 35 35 35 35 36 38 39 41 43 45 46 46 45 45 45 45 45 45 46 47 47 48 49 49 49 48 48 48 47 47 47 47 45 42 40 39 39 38 37 36 36 37 36 33 30 28 26 25 24 24 23 21 20 20 20 20 20 19 19 19 19
49 48 48 47 46 45 44 43 43 42 42 42 42 42 42 42 42 41 40 39 39 38 37 37 36 37 37 37 37 38 39 41 42 44 45 46 47 46 45 44 45 45 45 45 46 47 48 48 48 48 47 47 47 47 46 46 46 45 43 40 37 36 36 36 34 34 34 34 32 29 28 27 26 24 24 24 23 22 20 20 20 20 21 20 19 18 17
47 47 46 46 45 44 43 43 42 42 42 42 42 42 42 42 42 42 41 41 41 40 39 39 38 39 39 40 40 41 42 42 43 45 46 47 47 46 45 45 45 45 45 46 47 47 48 48 48 48 47 46 46 45 45 44 43 42 40 37 34 33 33 33 32 31 30 30 29 27 26 27 26 24 24 25 25 23 20 20 20 20 21 21 20 19 17
45 45 44 44 44 43 43 42 42 42 42 42 42 42 42 42 42 42 42 42 42 42 42 41 41 41 41 41 42 43 44 44 44 45 46 47 47 47 46 47 47 47 47 47 48 48 48 48 48 47 46 45 45 44 44 42 41 40 39 37 33 31 31 32 31 30 30 29 29 28 27 27 26 25 24 25 25 24 22 21 21 20 21 21 21 20 19
43 42 42 42 43 43 43 43 43 43 42 42 41 41 42 42 43 43 44 44 44 44 43 43 42 42 42 42 43 45 46 45 45 46 47 48 48 48 48 48 49 49 49 49 49 48 48 48 47 45 44 44 44 44 43 42 41 40 38 36 34 32 31 32 32 31 31 31 30 29 28 26 26 26 25 25 25 24 23 22 21 20 21 21 21 21 20
42 41 41 41 42 42 42 42 43 43 42 42 41 42 42 44 45 46 46 46 45 45 44 44 44 44 44 44 45 46 47 47 47 47 49 50 50 49 49 49 49 50 50 50 49 49 48 47 45 44 43 44 44 44 43 41 40 39 37 35 33 32 31 32 32 31 30 31 30 30 28 26 26 25 26 25 25 24 23 22 20 19 19 21 21 21 21
42 42 42 42 42 42 42 42 43 43 43 43 44 44 45 45 46 47 47 47 47 46 45 45 47 47 47 47 48 49 49 48 48 49 51 51 51 50 50 49 49 50 50 49 49 48 47 45 44 43 43 43 43 42 41 40 39 38 36 35 33 31 30 31 31 30 30 29 28 28 28 27 26 26 26 27 26 25 24 23 22 20 19 19 20 20 20
46 45 44 44 43 43 43 43 43 44 44 45 46 46 46 47 47 48 48 48 48 48 48 48 50 51 50 50 50 50 50 50 50 51 52 53 52 51 51 50 49 48 48 47 47 46 44 43 43 43 43 43 41 40 40 40 39 36 34 33 33 31 30 29 29 29 28 26 24 25 26 25 25 26 27 28 28 27 26 25 23 22 21 20 19 19 19
47 46 45 44 44 44 44 44 44 45 46 46 47 47 47 48 49 50 50 50 51 52 51 51 52 52 51 51 52 51 50 50 51 53 54 54 53 52 51 50 48 47 46 45 43 42 41 41 42 42 42 41 39 39 39 39 37 35 33 32 31 31 29 27 27 27 25 22 22 23 24 24 24 25 27 28 28 27 26 25 24 23 23 23 22 20 20
46 46 46 45 44 45 45 45 45 46 46 47 48 49 49 50 51 52 53 53 54 54 53 52 52 52 51 52 52 51 50 51 53 54 54 54 53 52 50 49 47 45 44 42 40 39 39 40 40 40 40 38 37 38 38 37 36 34 33 31 31 30 28 27 27 25 23 22 23 24 24 24 25 27 28 29 29 28 27 26 25 23 23 24 25 25 24
48 48 48 48 47 47 48 48 48 48 49 49 50 50 51 51 52 53 54 54 55 54 53 53 52 52 51 51 51 50 51 52 53 53 53 52 51 49 48 46 45 43 42 40 40 40 40 39 39 38 37 37 36 37 37 36 35 33 33 34 33 32 30 28 26 24 23 24 25 24 23 23 25 27 27 28 28 28 28 27 26 25 24 24 26 27 27
49 50 51 51 51 51 51 50 51 51 51 52 52 52 52 53 53 54 55 55 55 54 53 53 52 52 51 51 50 50 50 51 51 51 50 49 47 46 44 43 42 41 40 40 40 41 40 38 37 37 36 36 36 36 36 36 34 32 33 34 31 27 27 26 24 23 22 22 22 22 21 21 23 24 24 25 26 27 27 27 27 26 25 25 26 27 27
49 49 50 51 51 52 52 52 52 52 53 53 53 53 54 54 54 55 56 56 55 55 54 53 52 52 52 51 50 50 50 49 49 48 47 46 44 43 42 41 39 39 39 40 40 39 38 37 36 36 36 36 35 35 35 34 33 31 32 31 26 22 22 22 22 22 22 21 21 21 21 22 23 24 24 25 25 25 26 27 27 27 26 26 26 27 27
49 49 50 50 51 52 52 52 52 53 53 53 53 53 55 56 56 56 57 56 56 55 54 53 52 52 51 50 50 50 49 48 47 46 45 43 42 41 39 38 38 38 39 39 38 37 36 36 36 36 36 36 36 36 35 33 32 31 30 29 27 24 23 23 23 23 22 20 20 20 21 22 24 25 26 26 26 26 26 26 26 26 27 26 26 26 26
50 49 49 48 49 50 51 51 52 52 53 53 53 54 55 57 57 56 57 57 56 55 54 54 53 52 51 50 51 50 49 46 45 44 42 41 40 38 37 37 38 38 37 36 36 35 35 35 35 35 36 37 37 36 34 32 30 29 28 28 28 27 26 24 23 22 21 21 21 21 23 24 26 26 27 28 28 28 28 27 26 26 26 26 26 26 26
50 49 48 48 48 48 49 50 51 51 52 53 54 55 57 58 57 57 57 56 55 55 55 54 52 51 51 51 51 49 47 44 42 41 40 39 38 36 36 37 37 37 36 35 35 34 34 34 34 34 35 36 36 35 32 30 29 28 28 27 27 26 25 23 22 21 21 21 21 21 23 25 26 27 28 29 29 28 28 28 27 27 27 27 27 26 26
49 49 49 49 49 49 48 49 50 50 52 53 54 56 57 56 54 53 54 53 52 53 53 52 51 51 51 51 50 47 43 41 39 39 38 37 36 35 36 36 36 35 35 35 34 34 33 33 34 34 34 34 34 32 30 29 28 28 28 27 26 25 23 21 21 21 20 20 21 22 24 24 25 25 26 26 27 27 26 27 27 27 27 27 27 26 26
49 49 49 49 49 49 49 50 49 50 52 53 53 54 53 49 45 46 48 48 47 47 48 48 48 50 50 48 46 43 40 38 38 38 37 36 35 35 36 35 35 34 35 35 34 34 34 33 33 33 32 32 31 30 28 27 28 28 28 27 26 24 22 21 21 21 22 23 24 25 25 24 24 24 24 25 25 25 25 25 25 26 26 27 27 27 27
46 46 46 46 46 46 47 48 49 50 51 50 48 47 47 45 44 44 45 44 43 43 44 45 46 46 45 43 41 39 38 37 37 36 35 35 35 35 35 34 34 34 35 35 35 34 34 33 32 31 31 29 29 28 27 26 26 27 26 25 23 21 21 22 23 24 25 25 25 25 25 25 25 25 25 25 25 24 24 24 25 25 26 27 28 28 28
42 43 43 43 42 42 43 45 47 48 47 44 39 38 40 41 42 42 41 40 40 42 43 43 42 41 39 38 37 37 36 36 35 34 34 34 34 34 33 33 34 34 35 35 34 33 32 31 31 30 29 28 27 27 26 25 25 25 25 25 24 23 24 24 25 25 26 26 27 27 28 28 28 27 26 25 25 25 26 26 27 27 28 28 29 29 30
39 39 39 38 37 37 38 38 38 40 41 39 37 37 38 39 39 38 36 36 37 38 39 39 37 36 35 35 35 35 34 34 33 33 34 33 33 33 32 33 34 34 34 33 31 30 29 28 27 27 26 26 25 24 23 22 22 23 24 25 26 26 26 26 26 26 27 28 29 30 30 30 29 28 27 26 26 27 28 28 28 29 29 29 30 30 31
33 34 33 32 31 31 31 29 27 29 32 35 35 36 37 37 37 36 36 35 35 34 34 34 34 34 34 35 35 34 34 33 33 33 33 33 32 32 32 33 33 33 32 30 28 26 25 25 24 23 22 22 22 21 21 21 22 22 23 24 24 25 26 26 26 27 28 29 29 29 29 28 27 26 26 27 28 28 28 29 29 30 30 31 31 32 32
30 30 29 28 26 24 23 21 21 23 27 30 32 34 36 36 36 35 35 34 34 34 33 33 33 34 35 36 35 34 33 33 33 33 32 32 32 32 32 32 32 31 30 28 26 24 23 23 22 22 21 20 20 20 20 20 21 22 23 24 24 25 26 26 27 27 28 28 28 27 27 26 26 26 27 28 28 29 29 30 31 31 32 33 33 34 35
25 25 24 22 20 18 16 15 16 20 23 26 29 32 34 34 34 33 32 32 32 33 33 33 34 35 35 34 33 32 32 32 32 31 31 31 32 32 32 32 31 30 28 27 25 24 24 23 23 23 23 22 22 21 20 20 21 21 22 23 24 24 25 26 26 27 27 27 27 26 26 26 27 28 29 29 30 30 31 32 33 33 34 35 36 37 37
19 19 20 21 21 21 20 17 16 17 20 23 26 29 30 30 30 31 31 32 32 32 33 33 33 33 32 31 31 31 31 31 30 30 30 31 31 31 31 31 30 29 27 26 26 26 26 25 25 25 24 23 23 22 22 22 22 22 23 24 25 25 26 27 27 27 28 28 28 28 28 29 30 30 31 31 32 33 33 34 35 36 36 37 37 38 38
17 16 17 18 19 21 22 20 19 18 19 22 26 28 29 30 30 31 32 32 32 32 32 31 30 30 29 29 29 30 30 29 29 30 30 30 30 30 30 30 28 27 26 26 26 26 26 26 25 25 24 23 22 22 22 22 23 23 24 25 26 27 27 28 28 29 29 29 30 30 31 31 32 32 33 34 34 35 36 36 36 37 37 38 38 38 39
16 16 16 17 18 20 21 21 21 20 20 22 25 27 28 29 30 30 30 30 29 28 28 28 28 28 28 28 28 28 28 28 28 29 29 29 29 29 28 27 26 25 25 25 25 25 25 24 24 24 23 23 22 22 22 23 24 25 25 26 27 28 28 29 29 30 30 31 31 32 33 33 34 34 35 36 36 36 36 36 36 36 36 36 36 36 35
13 13 14 17 19 21 21 21 20 20 20 22 24 25 25 25 25 25 25 26 26 26 26 27 27 27 27 27 27 28 28 28 28 28 28 28 28 27 25 25 24 24 25 24 24 24 23 23 23 23 23 23 23 23 24 24 25 26 26 27 28 29 29 30 31 31 32 32 33 34 34 34 35 35 35 34 34 34 34 34 33 33 32 31 31 30 30
15 16 17 18 19 20 20 20 19 19 20 21 21 21 21 21 22 22 23 24 24 25 25 25 26 26 26 27 27 28 28 28 28 28 27 27 26 25 24 23 23 23 24 23 23 23 23 23 23 24 24 24 24 24 25 26 26 27 28 29 30 31 31 32 32 33 33 33 33 33 33 32 32 31 31 31 30 30 30 29 28 28 28 28 28 28 28
17 17 18 18 19 20 21 20 20 19 19 19 19 19 20 20 20 21 22 22 23 23 24 24 25 26 27 27 28 28 28 28 28 27 26 25 24 23 22 21 22 22 22 23 23 23 24 24 25 25 25 25 25 26 27 28 29 29 30 31 31 32 32 32 31 31 31 30 29 29 28 28 28 27 27 27 26 26 26 26 26 26 26 26 26 26 26
16 16 16 17 18 20 20 19 18 18 17 17 18 18 18 19 19 20 21 21 22 23 23 24 25 26 26 26 27 27 27 26 26 24 23 22 21 20 19 20 21 22 23 23 24 24 25 25 26 26 26 27 28 29 29 30 31 32 32 32 31 31 29 28 27 26 25 25 25 25 25 25 25 24 24 24 24 24 24 24 24 25 25 25 25 25 26
13 15 16 17 17 17 16 15 15 15 15 16 16 17 17 19 19 20 20 21 21 22 22 22 23 23 24 24 24 23 23 22 21 20 19 19 19 19 20 21 22 23 24 25 25 25 25 26 26 27 27 28 29 30 31 31 32 32 31 30 28 26 25 24 23 23 23 23 23 23 23 23 23 23 23 23 23 23 23 23 23 23 24 24 24 24 25
12 13 14 13 13 13 12 13 14 14 14 15 16 17 18 18 19 18 19 19 19 19 19 20 20 21 21 21 21 20 20 19 19 19 19 20 20 21 22 23 24 25 25 25 25 26 26 27 28 28 29 30 30 31 31 31 31 29 27 25 23 22 22 21 21 22 22 22 21 21 21 22 22 22 22 22 22 22 21 21 22 22 22 23 23 23 24
10 10 10 10 11 11 12 13 14 14 15 16 16 17 17 17 17 17 17 17 18 18 18 18 19 19 20 20 20 19 20 20 21 22 22 23 24 24 25 25 25 26 26 26 26 27 27 28 29 29 30 30 31 31 30 28 26 24 23 21 20 20 21 21 21 21 21 21 21 21 21 21 21 21 20 20 20 20 20 19 20 20 21 22 22 22 23
Wind_Direction
254 257 261 266 272 276 279 281 283 286 290 293 295 295 293 289 285 286 288 287 289 293 294 292 291 288 286 284 281 280 280 282 284 287 290 292 291 290 290 291 293 296 299 301 301 301 303 303 303 308 314 315 314 313 312 313 314 314 314 315 315 316 317 317 317 318 319 321 322 321 319 317 319 321 319 316 315 315 317 320 321 322 321 318 317 316 310
256 260 262 266 270 274 277 279 280 284 289 292 294 293 292 288 285 285 286 286 289 293 293 292 290 287 286 284 282 281 283 284 286 287 287 288 287 288 289 290 293 296 297 298 298 300 301 301 302 307 312 313 312 311 311 312 313 313 313 313 314 315 316 316 316 317 318 321 322 321 318 316 316 318 318 317 315 313 313 315 318 320 321 319 316 316 314
255 258 261 265 268 272 274 276 280 285 289 290 290 289 288 287 286 286 286 287 291 293 292 291 290 288 286 284 282 283 284 285 284 284 286 287 287 288 290 292 295 296 296 296 297 298 299 299 301 305 309 310 310 310 310 311 311 311 311 312 313 314 314 314 314 316 318 319 321 321 318 315 313 314 314 314 313 311 310 311 314 317 319 319 317 316 316
255 258 261 265 269 272 274 277 283 288 289 287 286 284 284 284 285 286 287 290 293 292 290 289 289 287 284 282 281 282 283 283 282 283 284 286 287 289 291 294 297 297 295 295 296 297 298 299 300 303 306 308 308 308 308 309 309 309 309 310 311 312 312 312 313 315 317 318 320 320 318 314 312 311 311 311 310 308 307 307 310 313 316 318 317 316 316
257 260 263 267 271 272 274 280 286 287 285 284 284 283 282 282 283 285 287 290 291 290 289 288 287 284 282 279 279 280 281 281 281 282 283 285 287 291 294 296 296 295 294 295 296 297 297 298 299 301 303 305 306 305 306 306 307 307 307 308 309 310 310 311 312 314 316 318 319 320 317 312 309 308 308 309 308 305 304 305 308 311 313 315 316 316 316
258 261 264 267 269 272 278 284 285 283 284 285 283 280 280 281 284 286 288 289 288 287 287 287 285 283 281 278 278 279 280 280 280 282 284 286 288 291 294 294 293 293 294 296 296 295 295 296 297 299 301 303 304 304 304 304 304 305 306 307 308 309 310 311 312 314 316 317 319 319 316 310 306 305 305 307 307 304 303 303 306 309 310 312 314 315 316
259 261 264 267 270 275 280 282 281 282 284 282 279 278 280 283 285 287 288 287 286 286 285 284 283 282 280 279 279 279 279 278 279 281 283 285 287 290 291 291 291 293 293 293 292 292 292 294 295 297 300 302 302 302 302 302 303 304 305 307 308 310 311 312 313 314 316 317 318 318 316 310 305 303 303 304 305 304 303 303 305 307 308 310 312 313 316
262 264 266 269 272 275 275 276 279 281 280 277 277 280 283 286 287 287 286 285 284 283 282 281 280 279 279 280 280 280 279 278 279 279 280 282 285 287 287 288 290 290 290 290 289 290 291 293 295 297 299 300 300 300 301 302 303 305 306 308 310 311 313 313 313 314 315 316 316 317 315 310 304 302 301 302 302 302 302 303 304 306 306 308 310 312 314
265 267 268 269 270 270 271 274 278 278 277 277 279 281 284 286 286 285 283 282 280 279 278 277 276 276 277 278 279 279 279 279 278 277 278 280 281 282 284 285 287 287 288 289 290 292 294 296 297 298 299 300 300 300 301 302 304 306 308 310 311 312 313 314 313 313 313 315 315 315 313 308 303 301 301 301 300 299 300 302 303 304 305 306 310 311 312
266 267 269 269 269 269 271 274 276 277 277 278 279 280 282 284 284 282 281 280 279 277 276 274 273 274 275 276 278 279 279 277 276 275 275 275 276 279 282 284 286 288 289 291 293 295 297 298 298 298 299 299 300 300 302 304 306 309 310 311 311 312 313 313 312 311 313 314 315 314 312 307 303 302 302 301 300 298 298 300 302 302 303 305 309 310 310
266 268 269 269 270 272 275 277 277 278 279 280 280 280 282 285 284 281 282 283 283 282 280 277 275 275 275 276 277 277 276 274 273 272 272 273 276 280 283 286 288 289 291 293 295 297 298 298 298 298 298 299 301 303 305 307 310 311 312 312 312 312 312 311 310 310 312 314 315 313 310 307 305 304 303 302 300 297 297 299 301 300 301 303 306 308 308
266 267 268 269 270 273 277 280 279 280 281 281 279 281 286 288 284 284 286 287 287 286 284 281 278 277 277 277 276 275 274 273 272 271 272 276 280 283 285 287 289 290 292 294 296 297 298 298 298 298 300 302 304 306 308 310 311 311 311 312 312 312 311 309 308 309 311 314 314 312 309 307 306 305 304 302 299 296 296 299 301 299 299 301 304 306 306
266 267 268 269 269 272 278 281 281 280 280 278 280 285 290 286 283 286 288 288 288 287 283 281 279 278 277 275 274 274 276 276 275 274 276 279 282 284 285 287 288 290 293 295 297 298 299 299 299 300 302 304 306 308 309 309 309 310 311 312 312 311 309 307 306 308 311 314 314 312 309 307 307 306 304 301 297 295 296 298 300 299 298 299 301 303 304
265 266 267 268 269 272 278 281 280 278 278 280 284 288 286 283 284 287 286 285 285 282 278 276 274 273 271 270 272 275 277 278 278 278 279 281 282 284 286 288 291 294 296 298 299 300 300 300 300 302 303 305 307 308 308 307 308 309 311 312 311 309 306 305 305 307 310 313 313 312 309 307 306 305 303 300 296 295 296 297 299 299 298 298 300 301 302
265 266 266 268 270 273 276 277 277 277 279 281 283 284 283 284 286 286 285 284 282 278 276 275 273 272 271 270 272 274 275 276 279 280 281 283 285 288 290 293 296 298 300 300 301 300 300 300 301 302 303 305 306 306 306 307 308 310 311 311 310 306 302 302 304 306 308 310 311 311 308 306 305 304 301 298 296 296 299 299 298 298 297 298 299 300 300
264 264 266 268 271 273 275 275 275 276 277 278 280 281 282 284 285 284 284 282 281 280 279 278 277 276 274 273 273 274 276 279 282 285 287 289 291 292 294 296 298 299 300 300 300 299 299 299 300 301 303 304 305 306 307 308 309 310 310 310 307 302 300 301 303 305 307 308 308 309 307 305 303 301 298 295 293 296 301 301 300 298 297 298 300 300 300
263 264 267 269 271 272 273 273 273 274 274 276 278 279 279 281 282 282 281 281 282 283 282 280 278 277 277 277 277 278 282 286 290 291 292 292 293 293 295 296 297 298 298 298 298 298 298 299 300 302 303 305 306 307 307 308 309 310 310 308 304 301 300 301 302 304 305 305 305 305 304 302 300 298 295 291 291 295 299 300 300 299 298 298 300 301 301
263 266 268 269 269 270 270 270 271 272 273 275 276 277 278 280 281 281 281 282 283 284 284 283 281 280 280 281 282 285 290 293 294 293 292 292 291 292 293 294 295 296 297 297 297 298 299 300 302 303 304 305 306 306 307 307 308 308 307 305 303 301 300 301 302 303 303 302 301 300 299 298 297 295 292 289 287 291 295 296 297 298 299 299 300 301 302
264 265 267 268 268 269 269 270 270 271 272 273 275 276 278 279 279 280 281 282 283 284 285 285 284 285 286 287 288 291 293 294 292 291 289 289 289 290 292 293 294 295 296 297 298 299 301 302 302 304 305 305 305 305 306 306 306 306 306 306 306 302 300 301 302 302 301 300 296 294 294 294 293 292 290 286 284 286 290 292 293 295 296 296 298 301 302
264 266 267 267 268 269 270 270 270 271 272 272 274 275 276 277 278 280 281 282 284 285 286 286 287 288 289 290 290 290 290 290 288 287 287 287 289 291 292 293 293 294 296 298 299 300 301 301 302 303 304 304 304 305 306 307 307 308 308 308 306 302 300 301 302 303 303 299 294 290 290 290 290 289 287 284 282 283 286 290 291 292 292 292 294 298 301
264 265 265 266 267 268 269 269 269 269 270 271 272 273 274 276 278 280 282 283 284 285 286 288 289 288 288 287 286 286 288 289 287 286 287 289 290 292 293 294 295 296 297 299 300 301 301 301 303 304 305 305 306 307 308 308 308 307 305 304 302 301 300 301 302 305 305 301 294 289 288 288 289 288 286 284 283 284 286 288 290 290 289 290 292 296 299
262 263 264 265 266 267 267 268 268 268 269 270 272 273 275 277 278 279 281 282 283 284 285 286 286 285 284 285 286 287 289 290 289 288 289 290 292 294 296 297 298 298 298 299 301 301 301 303 305 305 305 306 306 307 306 306 305 303 301 300 299 299 298 298 299 302 304 301 294 289 288 289 289 289 288 285 284 285 285 285 287 288 288 288 289 292 296
262 263 265 265 266 266 267 267 268 269 270 271 272 273 275 276 276 277 278 279 281 282 283 283 284 284 284 286 289 291 291 292 292 291 291 292 293 296 298 299 299 299 299 300 301 301 302 303 304 304 304 305 304 304 304 303 302 301 300 300 299 297 296 295 294 296 300 298 292 288 287 288 289 290 290 287 285 285 284 283 283 283 284 285 285 287 290
260 261 262 263 264 265 266 267 268 269 269 270 270 271 272 273 274 276 277 279 281 282 283 285 286 287 287 289 292 293 293 294 294 293 292 292 293 295 298 300 300 300 300 301 300 300 301 301 302 303 303 303 302 302 302 302 301 301 301 301 298 295 294 293 292 294 297 295 288 284 284 284 285 288 288 286 286 287 286 285 283 280 279 279 279 281 284
258 257 258 259 260 261 263 264 265 267 268 268 269 269 270 271 273 275 278 280 282 284 285 286 286 286 287 289 292 293 293 294 294 293 291 291 293 296 298 299 299 299 298 298 298 299 299 300 301 302 302 302 301 301 301 300 299 301 302 299 296 293 293 292 292 294 296 291 283 279 281 283 284 285 285 285 287 288 288 288 287 284 280 276 273 273 277
258 257 256 257 258 259 260 261 263 264 265 266 268 269 271 272 274 275 277 279 280 281 281 281 282 284 286 289 290 291 292 292 293 291 290 291 294 297 298 298 297 296 296 296 296 298 299 300 300 300 300 300 299 299 298 298 299 301 300 297 293 291 290 290 290 293 293 286 276 274 280 284 286 285 285 285 286 288 290 290 289 287 285 281 274 271 272
261 261 260 260 259 259 260 260 261 262 263 265 266 268 269 270 271 273 274 275 276 277 277 278 280 282 285 286 287 288 290 291 291 290 290 292 295 297 297 296 295 295 294 295 296 297 298 298 298 298 298 297 297 296 296 297 298 299 298 294 290 288 286 285 287 290 288 281 275 277 281 283 283 284 285 286 286 287 288 288 287 286 284 283 280 277 277
260 263 263 262 260 260 259 259 259 259 260 262 264 266 266 267 268 270 272 273 274 275 276 278 280 282 283 283 284 286 288 289 288 288 290 292 294 294 294 294 294 294 294 294 295 297 297 297 296 295 295 294 294 294 295 296 297 297 295 293 290 285 282 282 283 285 283 279 276 276 278 281 282 283 284 286 286 285 285 285 286 285 283 282 282 283 284
256 257 259 260 260 260 260 261 260 260 260 262 263 264 266 267 268 269 270 272 273 275 276 278 280 281 281 281 283 284 286 286 287 288 289 291 292 292 292 292 293 293 294 295 297 298 297 296 294 293 293 293 294 294 294 296 298 297 295 294 290 282 276 276 277 277 279 279 274 270 272 278 282 283 284 283 283 283 284 284 284 284 283 281 281 282 284
256 256 257 258 259 259 260 261 261 262 263 264 264 265 266 266 268 269 270 271 273 274 276 277 278 279 280 281 282 283 284 285 286 287 289 290 290 290 291 291 292 293 295 297 298 297 296 294 293 293 293 293 294 295 295 297 298 295 294 297 293 277 266 266 267 268 275 278 272 266 267 272 277 281 283 282 281 281 282 282 282 282 282 280 279 280 281
258 258 258 259 260 261 261 261 261 262 263 264 265 265 266 266 267 268 270 271 272 274 275 276 277 278 279 281 282 284 285 286 287 288 289 289 289 290 290 291 291 293 295 297 296 295 295 294 293 293 294 294 295 296 296 297 297 293 292 295 293 275 260 260 265 270 276 278 272 267 266 268 272 277 279 278 278 279 279 279 280 280 281 280 279 279 279
259 260 260 261 261 262 263 263 263 264 264 264 264 264 265 266 266 267 269 270 271 273 274 276 277 278 280 281 283 284 286 287 288 288 288 288 288 289 289 289 292 294 295 295 295 294 294 294 295 295 295 294 295 295 295 295 294 291 289 290 289 281 272 270 270 271 273 275 274 271 269 270 274 276 275 274 275 278 279 279 278 279 280 281 280 279 278
261 262 263 264 264 264 264 265 264 264 264 264 264 263 263 264 265 266 267 269 271 272 274 276 277 279 280 282 283 285 287 288 288 286 286 287 287 287 287 290 293 294 294 294 294 294 294 295 296 295 294 293 292 292 292 292 291 289 286 284 284 283 280 277 275 272 270 272 274 273 271 273 276 276 275 275 276 277 278 278 277 277 278 278 278 277 277
263 264 265 266 267 267 267 266 265 264 263 263 262 261 261 262 264 265 266 268 270 273 274 276 278 279 280 281 283 286 288 288 286 285 285 285 285 286 289 292 293 293 293 293 293 293 293 294 294 294 292 290 288 288 289 289 287 284 282 281 281 282 281 278 275 272 269 268 269 270 272 275 277 276 276 277 277 277 276 275 275 276 276 276 277 277 276
266 266 267 268 268 269 268 267 265 263 261 260 260 260 261 262 264 266 266 268 270 272 274 275 276 277 279 281 284 287 287 285 283 283 283 283 284 287 290 292 292 292 293 294 294 294 295 295 296 296 294 290 287 286 285 285 283 280 278 279 280 280 279 275 272 269 266 266 269 273 276 279 279 279 280 280 279 279 278 277 277 278 278 278 278 277 276
269 269 269 270 269 269 268 267 265 263 261 260 259 259 260 261 261 263 266 268 270 273 275 276 275 275 279 282 284 285 284 282 281 281 281 282 285 288 290 291 292 293 294 295 296 296 296 296 296 296 295 292 287 285 284 283 280 277 277 278 278 277 275 272 270 270 271 274 276 277 278 279 280 281 282 282 282 283 282 282 281 281 280 280 279 279 278
271 270 269 268 266 266 266 266 264 261 259 258 258 258 259 260 260 263 267 270 270 273 277 279 278 278 281 283 283 282 281 280 280 280 281 283 287 289 290 292 293 294 295 296 296 296 295 295 294 295 295 291 286 283 282 280 277 276 278 279 278 277 276 274 272 273 275 277 277 277 277 278 280 281 282 283 284 285 284 283 282 281 280 280 280 281 281
268 266 264 262 262 262 263 264 264 262 258 255 254 255 257 260 262 265 267 269 270 273 279 282 282 281 281 281 280 279 279 279 280 282 284 286 288 289 291 292 293 295 296 297 297 296 294 293 294 295 295 291 287 283 281 278 274 273 272 273 274 276 277 276 274 275 276 277 277 277 277 278 279 281 283 285 285 284 283 282 282 281 282 282 282 282 282
265 264 263 263 263 264 263 264 267 266 261 254 251 253 256 259 262 264 268 272 276 279 281 281 280 279 278 277 277 278 279 280 282 283 285 287 288 289 290 292 293 295 297 298 296 294 292 292 294 296 294 291 288 286 282 278 275 274 273 272 273 273 274 274 274 275 275 276 276 277 278 279 282 284 285 285 284 283 282 283 283 283 283 282 282 282 281
263 263 263 263 264 264 262 261 263 264 258 253 252 254 257 259 262 267 273 278 280 279 277 275 274 273 274 275 276 278 280 282 283 284 286 287 287 288 290 292 293 295 297 296 294 292 291 293 296 298 296 292 289 287 283 279 278 278 277 277 276 275 275 276 277 277 276 276 277 279 281 283 285 285 285 284 283 283 284 284 284 284 284 283 283 283 283
259 259 259 258 258 257 256 254 254 254 253 251 252 254 256 259 263 268 273 274 273 271 269 269 270 272 273 275 277 279 281 283 284 285 286 287 287 288 290 291 292 294 295 294 292 292 294 297 300 302 302 299 294 290 287 284 283 282 281 280 280 280 280 280 280 280 280 281 282 283 284 285 284 283 282 282 283 283 284 284 284 284 284 285 285 285 285
256 255 253 250 245 242 241 243 245 247 249 250 251 251 253 256 260 264 267 268 268 267 267 268 271 274 275 276 278 280 282 283 284 286 286 287 287 288 289 289 289 291 292 291 290 291 293 296 298 300 301 301 299 297 295 293 291 289 287 286 284 284 283 283 284 284 285 285 285 286 286 285 284 283 283 284 284 284 284 284 285 285 286 286 287 287 287
248 251 253 249 240 230 225 230 240 249 252 254 254 254 255 257 260 263 265 267 268 268 269 271 275 277 278 279 281 282 283 285 286 286 287 287 287 287 286 287 288 291 291 291 290 290 291 293 294 295 295 296 297 297 296 295 293 291 289 287 286 286 286 286 287 287 287 287 287 287 287 286 286 286 286 286 286 286 286 286 287 287 288 288 289 290 290
242 246 249 245 232 219 218 229 246 257 258 257 256 256 257 259 260 262 264 267 269 271 274 276 279 281 281 282 283 284 285 286 286 286 287 286 285 285 285 287 290 292 292 291 291 292 292 292 293 292 292 292 292 292 291 290 289 288 287 287 287 287 288 288 288 288 288 288 288 287 287 287 287 287 287 287 288 288 288 289 289 289 290 290 290 291 291
245 244 242 237 228 222 229 243 253 257 257 257 257 258 258 259 261 263 267 270 273 275 277 278 280 281 281 282 283 283 284 285 286 286 286 285 284 285 287 288 290 291 290 289 289 290 290 290 291 291 291 291 291 291 290 288 286 286 286 286 286 287 287 287 287 287 287 288 287 287 287 288 288 288 288 288 288 288 289 289 289 289 289 289 289 289 289
228 228 231 233 232 234 241 248 251 250 251 254 258 260 262 264 266 270 273 275 277 278 278 279 280 280 281 282 282 283 284 285 285 285 284 283 284 286 287 287 287 286 286 287 287 288 288 288 289 290 290 291 291 291 289 288 287 287 287 287 287 287 287 287 287 287 287 287 288 287 287 287 287 287 287 287 288 288 288 288 288 288 288 288 288 287 287
202 205 213 221 227 233 237 242 245 249 254 260 265 270 273 275 277 278 279 279 280 280 280 281 281 281 281 282 282 283 283 283 283 282 282 283 285 285 285 284 283 284 284 285 286 287 288 288 289 289 290 290 290 288 287 287 287 288 288 288 288 288 288 288 288 288 288 288 288 287 287 287 287 287 287 287 288 288 288 289 289 289 289 289 289 289 289
206 210 213 219 227 235 240 246 253 261 266 272 276 278 280 280 281 281 281 282 282 282 282 282 281 281 281 281 281 281 281 280 280 280 282 283 283 283 283 282 281 282 283 284 285 287 288 289 289 290 290 290 290 289 290 291 291 291 291 291 291 291 291 290 289 289 288 288 287 287 287 287 287 287 288 288 288 288 288 288 288 289 289 289 289 290 290
217 227 234 239 244 249 254 260 266 271 274 276 278 279 281 282 283 283 283 283 282 282 281 280 280 280 280 279 279 279 279 279 280 282 283 283 283 283 283 282 282 283 285 287 288 289 290 290 290 291 292 292 293 294 295 295 295 295 295 295 295 293 292 291 290 289 289 289 289 289 289 289 289 288 288 287 287 287 287 287 288 288 289 289 290 291 292
238 247 251 253 256 260 264 268 271 273 276 279 281 283 283 283 282 282 282 282 281 280 280 280 279 279 280 280 280 280 281 283 284 285 285 285 285 285 285 286 287 288 289 289 290 291 292 293 294 295 296 297 297 297 297 298 298 297 297 296 295 293 292 292 292 292 292 292 292 291 291 290 290 289 288 288 288 288 288 288 288 289 290 291 293 294 295
250 252 254 257 262 267 271 274 277 279 281 283 283 283 282 282 283 283 283 283 283 283 283 282 282 282 282 283 284 285 286 286 287 287 287 288 288 288 289 289 289 290 291 292 293 294 295 296 298 299 299 299 298 298 298 298 297 296 295 294 294 294 295 295 295 295 295 294 294 294 293 292 291 290 290 289 288 288 288 290 291 292 293 295 296 297 298
249 254 261 267 272 275 277 278 280 281 282 282 283 284 285 286 287 287 286 286 286 286 285 284 284 285 286 287 287 288 288 288 289 290 290 291 291 291 291 291 291 291 293 294 294 295 297 298 298 299 299 299 299 298 298 296 295 294 295 296 297 298 298 297 296 296 296 296 296 295 294 293 292 291 290 290 290 291 292 293 294 295 296 296 297 298 298
Height
5870 5871 5871 5872 5873 5873 5873 5873 5872 5871 5871 5871 5871 5870 5870 5869 5868 5869 5870 5869 5869 5871 5870 5869 5868 5867 5867 5867 5866 5865 5865 5863 5861 5860 5859 5858 5856 5854 5853 5852 5850 5849 5847 5846 5844 5842 5839 5837 5835 5833 5831 5828 5826 5823 5820 5818 5815 5813 5810 5807 5804 5801 5798 5796 5793 5790 5787 5784 5781 5777 5774 5772 5769 5766 5763 5761 5759 5757 5754 5751 5748 5746 5743 5740 5737 5734 5732
5868 5868 5869 5870 5870 5870 5870 5870 5869 5869 5869 5868 5867 5866 5866 5865 5865 5866 5866 5866 5867 5868 5867 5865 5864 5863 5863 5863 5862 5861 5860 5859 5857 5856 5855 5854 5852 5851 5849 5848 5846 5845 5844 5842 5840 5838 5836 5833 5830 5829 5827 5824 5822 5819 5816 5814 5811 5809 5806 5803 5800 5797 5794 5792 5789 5786 5783 5780 5777 5774 5771 5768 5766 5763 5761 5758 5755 5753 5751 5748 5745 5743 5740 5737 5734 5731 5729
5865 5865 5866 5866 5866 5867 5866 5866 5867 5867 5867 5865 5863 5863 5862 5860 5860 5861 5861 5861 5863 5864 5862 5861 5860 5859 5859 5858 5857 5856 5855 5854 5853 5852 5851 5850 5848 5846 5845 5844 5843 5842 5840 5838 5836 5834 5832 5829 5826 5825 5823 5821 5818 5815 5813 5810 5808 5805 5802 5800 5797 5794 5791 5788 5786 5783 5779 5776 5773 5770 5767 5764 5762 5760 5757 5755 5752 5750 5747 5745 5742 5739 5737 5734 5731 5728 5726
5861 5862 5863 5862 5862 5862 5861 5862 5864 5865 5863 5861 5860 5859 5858 5857 5856 5857 5857 5858 5859 5859 5858 5857 5856 5856 5855 5854 5853 5852 5851 5850 5849 5848 5847 5845 5844 5842 5841 5839 5838 5837 5835 5834 5832 5830 5828 5825 5822 5820 5819 5817 5814 5811 5809 5807 5804 5802 5799 5796 5793 5791 5788 5785 5783 5779 5776 5773 5770 5767 5764 5761 5758 5756 5754 5752 5749 5746 5743 5741 5739 5736 5734 5731 5728 5726 5724
5858 5859 5858 5858 5858 5855 5855 5860 5862 5860 5858 5857 5856 5855 5854 5853 5853 5853 5854 5855 5854 5854 5853 5852 5852 5851 5851 5850 5849 5848 5847 5846 5845 5844 5842 5841 5839 5838 5836 5835 5834 5833 5831 5830 5828 5826 5824 5821 5819 5817 5815 5813 5810 5808 5805 5803 5801 5798 5795 5793 5790 5787 5785 5782 5779 5776 5772 5769 5766 5763 5760 5757 5755 5752 5750 5748 5746 5743 5740 5738 5736 5733 5731 5728 5726 5723 5721
5854 5854 5854 5853 5851 5850 5853 5857 5857 5855 5853 5853 5852 5850 5850 5850 5850 5850 5851 5851 5850 5849 5848 5848 5847 5847 5846 5845 5844 5844 5843 5841 5840 5839 5838 5836 5835 5834 5832 5831 5830 5828 5827 5825 5823 5821 5819 5817 5815 5813 5811 5809 5806 5804 5801 5799 5796 5794 5791 5789 5786 5783 5781 5778 5775 5771 5768 5765 5762 5759 5756 5754 5752 5749 5747 5745 5743 5740 5737 5735 5733 5730 5728 5725 5723 5721 5719
5849 5849 5849 5847 5845 5847 5851 5852 5851 5851 5850 5848 5845 5845 5846 5848 5847 5847 5847 5846 5845 5844 5844 5843 5842 5842 5841 5840 5840 5839 5838 5837 5836 5834 5833 5832 5831 5830 5829 5827 5826 5824 5822 5820 5818 5816 5815 5814 5811 5809 5807 5804 5802 5799 5797 5794 5791 5789 5786 5784 5781 5778 5775 5773 5770 5767 5764 5761 5758 5755 5752 5750 5748 5746 5743 5741 5739 5737 5735 5732 5730 5728 5725 5722 5720 5718 5716
5843 5844 5843 5842 5841 5843 5846 5847 5848 5847 5845 5842 5840 5841 5844 5845 5844 5843 5843 5842 5840 5840 5839 5838 5837 5837 5836 5835 5835 5834 5833 5832 5831 5830 5829 5828 5827 5826 5825 5823 5821 5819 5817 5815 5813 5811 5810 5809 5807 5805 5802 5800 5797 5794 5792 5789 5786 5784 5781 5778 5775 5773 5770 5768 5765 5763 5760 5757 5754 5751 5749 5746 5744 5742 5740 5738 5736 5734 5732 5729 5727 5725 5722 5720 5718 5716 5713
5837 5837 5837 5837 5837 5838 5841 5845 5845 5843 5840 5838 5836 5837 5840 5841 5840 5839 5838 5837 5836 5835 5834 5833 5833 5832 5831 5831 5830 5829 5829 5828 5827 5826 5825 5825 5823 5822 5820 5818 5816 5814 5812 5810 5808 5806 5805 5803 5801 5799 5797 5795 5792 5789 5787 5784 5781 5779 5776 5773 5770 5768 5766 5763 5761 5758 5756 5753 5750 5748 5745 5743 5740 5738 5736 5734 5732 5731 5729 5726 5724 5722 5719 5717 5715 5713 5711
5831 5832 5831 5831 5831 5832 5837 5842 5842 5838 5835 5834 5832 5833 5836 5837 5836 5834 5833 5832 5831 5830 5830 5829 5828 5828 5827 5826 5825 5825 5825 5824 5823 5822 5821 5820 5819 5817 5815 5813 5811 5809 5807 5805 5803 5801 5799 5797 5796 5794 5792 5790 5787 5785 5782 5779 5777 5774 5771 5768 5766 5764 5761 5759 5756 5753 5751 5749 5746 5744 5741 5739 5737 5734 5732 5731 5729 5727 5726 5724 5722 5719 5717 5714 5713 5711 5709
5826 5826 5826 5825 5825 5827 5832 5836 5837 5833 5831 5829 5828 5829 5832 5833 5830 5829 5828 5828 5827 5826 5826 5825 5824 5824 5823 5822 5822 5822 5821 5820 5819 5818 5816 5815 5813 5812 5810 5809 5807 5804 5802 5800 5798 5796 5794 5792 5790 5788 5787 5785 5782 5780 5777 5774 5771 5769 5767 5764 5762 5759 5757 5755 5752 5749 5746 5744 5742 5739 5737 5735 5733 5731 5729 5727 5725 5724 5722 5721 5719 5717 5714 5712 5710 5708 5706
5822 5821 5820 5820 5821 5823 5826 5830 5831 5829 5826 5824 5823 5825 5827 5827 5825 5825 5825 5824 5823 5822 5822 5821 5821 5820 5819 5818 5818 5817 5816 5815 5814 5813 5811 5810 5808 5807 5806 5804 5802 5800 5798 5796 5794 5791 5789 5787 5785 5783 5781 5779 5777 5774 5771 5769 5766 5764 5762 5760 5757 5755 5752 5750 5747 5745 5742 5740 5738 5735 5733 5731 5729 5727 5725 5724 5722 5721 5719 5717 5716 5714 5712 5710 5708 5706 5704
5817 5816 5815 5815 5817 5819 5822 5824 5825 5823 5820 5819 5819 5821 5823 5822 5821 5821 5821 5820 5820 5819 5818 5817 5816 5816 5815 5815 5813 5812 5811 5810 5809 5808 5807 5805 5804 5803 5801 5799 5797 5795 5793 5792 5789 5787 5784 5782 5779 5777 5775 5773 5771 5769 5766 5764 5762 5760 5758 5755 5752 5750 5747 5745 5743 5740 5738 5736 5733 5731 5729 5727 5725 5723 5722 5721 5720 5718 5716 5714 5713 5711 5709 5707 5706 5704 5702
5812 5812 5811 5811 5813 5816 5819 5819 5818 5816 5815 5814 5815 5817 5818 5817 5817 5818 5817 5817 5816 5815 5814 5813 5812 5812 5811 5810 5808 5807 5807 5805 5804 5803 5803 5801 5800 5798 5796 5794 5792 5790 5789 5787 5784 5782 5779 5777 5774 5772 5770 5768 5766 5764 5761 5759 5757 5755 5752 5750 5748 5745 5742 5740 5738 5736 5734 5732 5729 5727 5725 5723 5721 5720 5719 5718 5717 5716 5714 5712 5710 5709 5707 5705 5703 5702 5700
5807 5807 5807 5808 5809 5811 5813 5813 5812 5811 5811 5811 5812 5812 5812 5812 5813 5813 5813 5813 5812 5811 5810 5810 5809 5808 5807 5806 5804 5804 5802 5801 5801 5800 5798 5797 5795 5793 5791 5789 5787 5785 5783 5781 5779 5777 5774 5772 5769 5767 5765 5763 5761 5759 5756 5754 5752 5750 5747 5745 5743 5740 5738 5736 5734 5732 5730 5728 5725 5723 5722 5720 5718 5717 5716 5715 5714 5713 5711 5709 5708 5706 5704 5702 5701 5700 5698
5802 5802 5803 5804 5806 5807 5807 5808 5808 5808 5807 5807 5807 5807 5807 5808 5808 5808 5808 5808 5807 5807 5806 5805 5804 5804 5802 5801 5800 5799 5798 5798 5797 5795 5793 5792 5789 5787 5785 5783 5782 5780 5778 5776 5774 5771 5769 5767 5764 5762 5760 5758 5756 5753 5751 5749 5747 5745 5742 5740 5738 5736 5733 5731 5730 5728 5726 5723 5721 5719 5718 5716 5715 5713 5713 5712 5711 5710 5708 5707 5705 5703 5701 5699 5698 5697 5696
5797 5797 5798 5800 5801 5802 5802 5803 5803 5803 5803 5803 5803 5803 5803 5803 5803 5803 5803 5802 5802 5802 5801 5801 5800 5799 5797 5797 5796 5795 5794 5793 5792 5790 5788 5786 5784 5782 5780 5779 5777 5775 5773 5771 5769 5766 5764 5762 5760 5757 5755 5753 5751 5748 5746 5744 5742 5740 5738 5736 5733 5731 5729 5727 5725 5723 5721 5719 5717 5715 5714 5713 5711 5710 5710 5709 5708 5707 5705 5704 5703 5701 5699 5697 5695 5694 5693
5792 5793 5794 5795 5796 5796 5797 5797 5797 5798 5798 5798 5798 5798 5798 5798 5798 5797 5797 5797 5797 5797 5796 5795 5794 5793 5793 5792 5791 5790 5789 5788 5786 5784 5783 5780 5779 5777 5776 5774 5772 5770 5768 5765 5763 5761 5759 5757 5755 5752 5750 5748 5746 5743 5741 5739 5737 5735 5733 5731 5729 5727 5725 5723 5721 5719 5717 5715 5712 5711 5710 5709 5708 5707 5706 5706 5705 5704 5703 5702 5700 5699 5697 5695 5693 5692 5691
5787 5788 5789 5789 5790 5790 5791 5791 5792 5792 5793 5792 5792 5792 5792 5792 5792 5792 5791 5791 5791 5791 5790 5790 5788 5788 5787 5786 5785 5784 5783 5782 5780 5779 5777 5775 5774 5772 5771 5769 5766 5764 5762 5760 5758 5756 5753 5751 5750 5748 5745 5743 5741 5739 5737 5735 5733 5731 5729 5727 5725 5723 5720 5718 5717 5715 5713 5710 5708 5707 5706 5705 5704 5704 5703 5702 5702 5701 5700 5699 5698 5697 5695 5693 5691 5689 5688
5782 5782 5782 5783 5784 5784 5785 5786 5786 5786 5787 5787 5787 5787 5786 5786 5786 5786 5785 5785 5785 5784 5784 5783 5783 5782 5781 5780 5780 5779 5778 5776 5775 5774 5772 5770 5769 5767 5765 5763 5761 5759 5757 5755 5753 5751 5748 5746 5744 5742 5740 5738 5736 5734 5732 5730 5728 5726 5724 5722 5720 5718 5716 5714 5713 5711 5708 5706 5703 5703 5702 5701 5700 5700 5700 5699 5698 5698 5698 5697 5695 5694 5692 5690 5689 5687 5686
5776 5776 5776 5777 5777 5778 5779 5780 5780 5780 5781 5781 5781 5781 5781 5780 5780 5780 5779 5779 5779 5778 5778 5778 5777 5777 5776 5775 5774 5773 5772 5771 5770 5768 5766 5765 5763 5761 5759 5757 5755 5753 5751 5749 5748 5746 5743 5741 5739 5737 5735 5733 5731 5729 5728 5726 5723 5721 5718 5717 5715 5713 5712 5710 5709 5707 5705 5702 5700 5699 5699 5698 5697 5697 5696 5696 5695 5695 5695 5694 5693 5691 5690 5688 5687 5685 5685
5769 5770 5771 5771 5772 5772 5773 5773 5774 5774 5775 5775 5775 5775 5775 5774 5774 5774 5773 5773 5773 5773 5773 5773 5772 5771 5770 5770 5769 5767 5766 5765 5764 5762 5760 5758 5757 5755 5753 5751 5749 5747 5746 5744 5742 5740 5738 5735 5733 5731 5729 5727 5726 5724 5722 5720 5718 5715 5713 5712 5711 5710 5708 5706 5705 5703 5702 5699 5697 5696 5695 5695 5694 5693 5693 5693 5692 5692 5692 5691 5690 5689 5688 5686 5685 5684 5683
5764 5765 5765 5766 5767 5767 5767 5768 5768 5768 5769 5769 5769 5769 5769 5769 5768 5768 5768 5767 5767 5767 5767 5767 5766 5765 5764 5763 5762 5761 5760 5759 5757 5756 5754 5752 5751 5749 5748 5746 5744 5742 5740 5738 5736 5734 5732 5730 5728 5726 5724 5722 5720 5718 5716 5714 5712 5710 5709 5707 5707 5706 5704 5702 5701 5699 5698 5696 5694 5693 5693 5692 5691 5690 5689 5689 5689 5688 5688 5688 5687 5687 5686 5685 5683 5682 5681
5758 5759 5759 5760 5761 5761 5762 5763 5763 5763 5763 5764 5764 5764 5764 5763 5762 5762 5761 5761 5761 5761 5761 5760 5760 5759 5758 5757 5756 5754 5753 5752 5751 5749 5747 5746 5745 5744 5742 5740 5738 5736 5734 5732 5730 5728 5726 5724 5723 5721 5719 5717 5715 5713 5711 5709 5708 5706 5704 5703 5702 5701 5700 5698 5697 5696 5695 5693 5692 5691 5690 5689 5688 5687 5686 5686 5685 5685 5685 5684 5684 5683 5683 5682 5681 5680 5679
5751 5752 5752 5753 5754 5755 5756 5757 5757 5757 5757 5758 5758 5758 5757 5757 5756 5756 5755 5755 5755 5755 5754 5754 5753 5752 5751 5751 5749 5748 5747 5746 5745 5743 5741 5739 5738 5738 5736 5734 5732 5730 5728 5726 5725 5723 5721 5719 5717 5715 5713 5711 5709 5708 5706 5704 5703 5701 5700 5698 5697 5696 5695 5694 5693 5692 5691 5690 5689 5688 5687 5686 5686 5685 5684 5682 5682 5682 5682 5681 5680 5680 5679 5679 5678 5678 5677
5743 5745 5746 5746 5748 5749 5750 5751 5751 5751 5751 5751 5751 5751 5751 5751 5751 5750 5750 5750 5750 5749 5748 5748 5746 5746 5745 5744 5743 5742 5741 5740 5738 5736 5734 5733 5732 5732 5730 5728 5727 5725 5723 5721 5719 5717 5715 5713 5712 5710 5708 5707 5705 5703 5701 5699 5698 5697 5695 5694 5692 5691 5691 5690 5689 5688 5687 5686 5686 5685 5685 5684 5683 5682 5681 5680 5679 5679 5678 5678 5677 5676 5676 5676 5675 5675 5674
5737 5739 5740 5741 5742 5743 5744 5745 5745 5745 5745 5745 5745 5746 5746 5745 5745 5745 5745 5744 5743 5743 5742 5741 5740 5740 5739 5738 5737 5736 5735 5734 5732 5730 5728 5727 5726 5725 5724 5722 5721 5719 5718 5716 5714 5712 5711 5709 5707 5705 5704 5702 5700 5698 5696 5694 5693 5692 5691 5689 5688 5687 5686 5686 5685 5684 5684 5683 5683 5683 5682 5681 5680 5679 5678 5677 5676 5676 5675 5674 5674 5673 5673 5672 5672 5672 5672
5731 5732 5732 5734 5735 5736 5737 5738 5738 5738 5739 5739 5739 5739 5739 5739 5739 5738 5738 5737 5736 5736 5735 5735 5734 5734 5733 5732 5731 5730 5729 5727 5725 5724 5722 5721 5720 5719 5718 5716 5715 5713 5712 5710 5709 5707 5706 5704 5702 5700 5698 5697 5695 5693 5691 5690 5689 5687 5686 5685 5683 5682 5682 5682 5681 5681 5680 5680 5679 5679 5678 5677 5676 5676 5675 5674 5673 5673 5672 5671 5671 5670 5670 5669 5669 5669 5668
5725 5725 5725 5726 5728 5729 5729 5730 5731 5732 5732 5733 5733 5733 5733 5732 5732 5731 5731 5730 5729 5729 5728 5728 5728 5727 5726 5726 5725 5724 5723 5721 5719 5718 5717 5715 5714 5713 5712 5710 5709 5707 5706 5705 5703 5702 5700 5698 5697 5695 5693 5691 5690 5688 5687 5685 5684 5683 5681 5680 5678 5677 5677 5677 5677 5677 5677 5676 5675 5675 5674 5673 5673 5672 5671 5671 5670 5669 5668 5668 5667 5667 5667 5666 5666 5665 5665
5717 5718 5719 5719 5720 5721 5722 5724 5724 5725 5725 5726 5726 5726 5726 5726 5725 5724 5723 5723 5722 5722 5722 5721 5721 5720 5720 5719 5719 5718 5716 5715 5713 5712 5711 5710 5708 5707 5706 5705 5703 5702 5700 5699 5698 5696 5694 5693 5691 5689 5688 5686 5685 5684 5682 5681 5680 5679 5677 5675 5673 5671 5671 5672 5672 5672 5672 5672 5671 5671 5670 5670 5670 5669 5668 5667 5666 5666 5665 5664 5664 5663 5663 5663 5662 5662 5661
5711 5711 5712 5713 5714 5714 5716 5717 5718 5718 5719 5719 5719 5719 5719 5719 5718 5717 5717 5716 5716 5715 5715 5715 5715 5714 5713 5713 5712 5711 5710 5709 5708 5706 5705 5704 5703 5702 5700 5699 5698 5696 5695 5694 5692 5691 5689 5688 5686 5684 5683 5681 5680 5679 5677 5676 5675 5674 5673 5672 5670 5668 5667 5668 5668 5668 5668 5668 5668 5667 5667 5666 5666 5666 5665 5664 5663 5662 5662 5661 5660 5660 5659 5659 5658 5658 5658
5704 5705 5706 5707 5708 5708 5709 5710 5711 5712 5712 5712 5712 5712 5712 5711 5711 5710 5710 5709 5709 5709 5709 5709 5708 5708 5708 5707 5706 5705 5704 5703 5702 5701 5699 5698 5697 5696 5695 5694 5692 5691 5690 5688 5687 5686 5684 5682 5681 5679 5678 5676 5675 5674 5673 5671 5670 5670 5669 5668 5667 5666 5665 5664 5664 5665 5665 5665 5664 5664 5663 5663 5662 5662 5661 5660 5659 5659 5658 5657 5657 5656 5656 5655 5655 5655 5654
5698 5700 5701 5701 5702 5702 5702 5703 5704 5704 5704 5705 5705 5705 5704 5703 5703 5703 5702 5702 5702 5702 5702 5702 5702 5702 5701 5701 5699 5699 5698 5698 5696 5695 5694 5693 5692 5691 5690 5689 5687 5686 5685 5683 5682 5681 5679 5678 5676 5674 5673 5671 5669 5668 5667 5667 5666 5665 5664 5664 5663 5662 5661 5660 5660 5661 5661 5661 5660 5660 5659 5658 5658 5658 5657 5656 5655 5655 5654 5654 5653 5652 5652 5652 5651 5651 5651
5692 5693 5694 5695 5695 5695 5696 5696 5697 5697 5697 5697 5697 5697 5696 5696 5696 5696 5696 5696 5696 5696 5696 5696 5696 5696 5695 5694 5693 5693 5692 5691 5690 5689 5688 5687 5686 5685 5685 5684 5682 5681 5680 5678 5677 5675 5674 5673 5671 5670 5668 5666 5664 5663 5662 5662 5661 5660 5660 5659 5659 5658 5658 5657 5656 5656 5656 5656 5656 5655 5655 5654 5654 5653 5653 5652 5651 5651 5650 5650 5649 5649 5648 5648 5648 5648 5647
5685 5686 5687 5688 5688 5688 5689 5689 5689 5689 5690 5689 5689 5689 5689 5690 5691 5691 5690 5690 5691 5690 5690 5690 5690 5689 5688 5688 5687 5687 5686 5685 5684 5684 5683 5682 5681 5680 5679 5678 5677 5676 5675 5673 5671 5670 5669 5667 5666 5664 5663 5661 5660 5659 5658 5658 5657 5656 5655 5655 5655 5654 5654 5653 5653 5652 5652 5652 5651 5651 5651 5650 5650 5649 5648 5648 5647 5647 5646 5646 5646 5645 5645 5644 5644 5644 5643
5678 5679 5680 5680 5680 5680 5681 5681 5681 5682 5681 5681 5682 5683 5683 5685 5686 5685 5684 5685 5685 5685 5684 5684 5684 5683 5683 5682 5682 5681 5681 5680 5679 5678 5677 5677 5676 5675 5674 5673 5672 5671 5669 5668 5667 5665 5664 5662 5661 5659 5658 5656 5655 5654 5654 5653 5652 5651 5651 5650 5650 5650 5650 5650 5649 5649 5649 5649 5648 5648 5647 5646 5646 5645 5644 5644 5644 5643 5643 5643 5642 5641 5641 5640 5640 5640 5639
5671 5672 5672 5672 5672 5672 5673 5673 5674 5674 5674 5674 5676 5677 5678 5679 5679 5679 5679 5679 5680 5679 5679 5678 5678 5677 5677 5677 5676 5675 5675 5674 5673 5673 5672 5672 5671 5670 5669 5668 5667 5666 5665 5663 5662 5660 5658 5657 5656 5654 5653 5652 5650 5650 5649 5649 5648 5647 5647 5646 5646 5646 5646 5646 5646 5646 5645 5645 5644 5644 5643 5642 5642 5641 5641 5641 5640 5640 5639 5639 5638 5637 5637 5637 5636 5636 5635
5664 5664 5663 5663 5664 5664 5665 5665 5666 5667 5668 5670 5671 5672 5673 5674 5674 5674 5675 5675 5675 5674 5674 5673 5673 5672 5672 5671 5670 5670 5669 5669 5668 5668 5667 5667 5666 5665 5664 5663 5662 5661 5660 5658 5657 5655 5653 5652 5651 5650 5648 5647 5646 5645 5645 5645 5644 5644 5644 5643 5643 5643 5643 5643 5642 5642 5642 5641 5641 5640 5639 5639 5638 5638 5637 5637 5637 5636 5635 5634 5634 5633 5633 5633 5632 5632 5631
5657 5657 5656 5656 5657 5657 5657 5658 5659 5661 5664 5665 5666 5668 5669 5669 5670 5670 5670 5670 5670 5669 5669 5668 5668 5667 5666 5665 5665 5665 5664 5663 5663 5663 5662 5662 5661 5660 5660 5659 5658 5657 5655 5654 5652 5650 5649 5648 5647 5646 5645 5643 5642 5641 5640 5641 5641 5641 5640 5640 5640 5640 5639 5639 5639 5639 5638 5638 5637 5636 5636 5635 5635 5634 5634 5633 5632 5631 5630 5629 5629 5629 5629 5628 5628 5627 5627
5652 5651 5651 5651 5652 5652 5652 5652 5654 5656 5658 5660 5662 5663 5664 5665 5666 5666 5666 5666 5665 5664 5664 5663 5663 5662 5661 5660 5660 5660 5659 5659 5658 5658 5657 5657 5656 5656 5655 5654 5653 5652 5650 5649 5648 5646 5645 5644 5643 5643 5642 5641 5639 5638 5637 5637 5637 5637 5637 5636 5636 5636 5635 5635 5635 5635 5634 5634 5633 5632 5632 5631 5631 5630 5629 5628 5627 5626 5626 5625 5625 5624 5624 5623 5623 5622 5622
5647 5646 5646 5647 5647 5647 5647 5648 5649 5651 5653 5655 5657 5658 5659 5659 5661 5661 5661 5661 5660 5659 5659 5658 5658 5657 5656 5656 5655 5655 5654 5654 5654 5653 5653 5652 5652 5651 5650 5649 5648 5647 5646 5644 5643 5642 5641 5640 5640 5639 5638 5638 5637 5636 5635 5635 5634 5634 5633 5633 5632 5632 5632 5631 5631 5630 5630 5629 5629 5628 5628 5627 5626 5625 5624 5623 5623 5622 5621 5621 5620 5619 5619 5618 5618 5617 5616
5642 5642 5643 5643 5643 5643 5644 5645 5647 5649 5650 5651 5652 5653 5653 5654 5656 5656 5656 5655 5655 5654 5654 5653 5652 5652 5651 5650 5650 5650 5650 5649 5649 5649 5648 5648 5647 5647 5646 5645 5644 5643 5642 5640 5639 5638 5638 5637 5636 5636 5635 5634 5634 5633 5632 5632 5631 5630 5630 5629 5629 5628 5627 5627 5626 5626 5625 5625 5624 5624 5623 5622 5621 5620 5619 5619 5618 5617 5617 5616 5615 5614 5614 5613 5612 5611 5610
5639 5639 5640 5641 5640 5641 5642 5644 5646 5648 5649 5649 5649 5649 5650 5651 5651 5651 5651 5650 5650 5649 5649 5648 5647 5647 5646 5646 5646 5646 5645 5645 5644 5644 5644 5643 5642 5642 5641 5640 5639 5639 5637 5636 5635 5634 5634 5633 5633 5632 5632 5631 5630 5630 5629 5628 5627 5626 5626 5625 5624 5623 5623 5622 5622 5621 5620 5620 5619 5619 5618 5617 5616 5615 5614 5614 5613 5612 5611 5611 5610 5609 5608 5607 5606 5605 5604
5636 5636 5637 5638 5639 5640 5642 5644 5645 5646 5647 5647 5646 5646 5646 5647 5647 5646 5646 5645 5645 5645 5644 5644 5643 5643 5642 5642 5642 5641 5641 5640 5640 5639 5639 5638 5638 5637 5637 5636 5635 5634 5633 5632 5631 5630 5629 5629 5629 5628 5628 5627 5627 5626 5625 5625 5624 5623 5622 5621 5620 5619 5619 5618 5617 5616 5616 5615 5614 5613 5612 5611 5611 5610 5609 5608 5607 5606 5605 5605 5604 5603 5602 5601 5600 5599 5598
5634 5635 5635 5637 5638 5640 5641 5642 5643 5643 5643 5643 5642 5642 5642 5642 5642 5642 5642 5641 5641 5641 5641 5640 5640 5639 5639 5638 5638 5637 5637 5636 5636 5635 5634 5634 5633 5633 5633 5632 5631 5629 5628 5627 5627 5626 5626 5625 5625 5624 5624 5623 5623 5622 5621 5621 5620 5619 5618 5617 5616 5615 5615 5614 5613 5612 5611 5610 5609 5608 5607 5606 5605 5604 5604 5603 5602 5601 5600 5599 5598 5597 5596 5596 5595 5594 5593
5632 5633 5634 5635 5636 5638 5639 5639 5639 5639 5639 5638 5638 5638 5639 5638 5638 5638 5638 5638 5638 5638 5637 5637 5636 5636 5635 5634 5634 5633 5632 5632 5631 5631 5630 5630 5629 5629 5628 5627 5626 5625 5624 5623 5623 5623 5622 5622 5621 5621 5620 5620 5619 5618 5617 5616 5615 5615 5614 5613 5612 5611 5610 5609 5608 5607 5606 5605 5604 5603 5602 5601 5600 5599 5598 5597 5596 5595 5595 5594 5593 5592 5591 5590 5590 5589 5588
5629 5630 5631 5632 5633 5634 5635 5636 5635 5635 5635 5635 5636 5636 5635 5635 5635 5635 5635 5634 5634 5634 5634 5633 5632 5631 5631 5630 5629 5629 5628 5628 5627 5627 5626 5626 5625 5625 5624 5623 5622 5621 5620 5620 5619 5619 5618 5618 5617 5617 5616 5616 5615 5614 5613 5612 5611 5610 5609 5608 5607 5606 5605 5604 5603 5602 5601 5600 5599 5598 5597 5596 5595 5594 5593 5593 5592 5591 5590 5589 5588 5587 5586 5585 5585 5584 5583
5628 5628 5629 5629 5630 5632 5632 5633 5633 5633 5633 5633 5633 5633 5632 5632 5632 5632 5632 5631 5631 5630 5630 5629 5628 5627 5627 5626 5626 5625 5624 5624 5623 5623 5622 5622 5621 5620 5619 5619 5618 5617 5616 5616 5615 5615 5615 5614 5613 5613 5612 5612 5610 5609 5608 5607 5606 5605 5604 5603 5602 5601 5600 5599 5598 5596 5595 5595 5594 5593 5592 5591 5590 5590 5589 5588 5587 5587 5586 5585 5584 5583 5582 5581 5580 5579 5579
5626 5627 5627 5628 5629 5630 5631 5631 5631 5631 5630 5630 5630 5630 5630 5629 5629 5629 5629 5628 5628 5627 5626 5625 5625 5624 5623 5622 5622 5621 5620 5620 5619 5619 5618 5618 5617 5616 5615 5615 5614 5613 5613 5612 5612 5611 5611 5610 5609 5608 5608 5607 5605 5604 5603 5602 5601 5600 5599 5597 5596 5595 5594 5593 5592 5592 5591 5590 5589 5589 5588 5587 5586 5586 5585 5584 5583 5583 5582 5581 5580 5579 5578 5577 5577 5576 5575
5625 5626 5627 5628 5628 5628 5628 5628 5628 5628 5628 5628 5628 5627 5627 5627 5626 5626 5626 5625 5624 5624 5623 5622 5621 5620 5619 5619 5618 5618 5617 5616 5616 5615 5614 5614 5613 5612 5612 5611 5610 5610 5609 5608 5608 5607 5606 5605 5604 5604 5603 5602 5601 5599 5598 5597 5596 5594 5593 5593 5592 5591 5590 5589 5588 5587 5587 5586 5585 5585 5584 5583 5582 5582 5581 5580 5580 5579 5578 5577 5576 5575 5574 5574 5573 5572 5571
5624 5625 5626 5626 5626 5626 5626 5626 5626 5626 5626 5626 5625 5625 5625 5624 5624 5623 5623 5622 5621 5620 5620 5619 5618 5617 5616 5616 5615 5614 5614 5613 5612 5611 5611 5610 5610 5609 5608 5607 5607 5606 5605 5604 5603 5602 5602 5601 5600 5599 5598 5597 5596 5595 5593 5592 5591 5590 5589 5588 5588 5587 5586 5585 5584 5584 5583 5582 5581 5581 5580 5579 5578 5578 5577 5576 5575 5575 5574 5573 5572 5571 5570 5569 5568 5567 5566
5623 5624 5624 5624 5624 5624 5624 5624 5624 5624 5624 5623 5623 5622 5622 5621 5621 5620 5619 5619 5618 5617 5617 5616 5615 5614 5613 5613 5612 5611 5611 5610 5609 5608 5607 5607 5606 5605 5604 5603 5603 5602 5601 5600 5599 5598 5598 5597 5596 5595 5594 5592 5591 5590 5589 5588 5587 5586 5585 5585 5584 5583 5582 5581 5581 5580 5579 5578 5577 5577 5576 5575 5574 5574 5573 5572 5571 5571 5570 5570 5569 5568 5567 5566 5565 5564 5562